Tracking 35274 objects as of 11-Sep-2026
HD Live streaming from Space Station
objects crossing your sky now

STARLINK-31954

Track STARLINK-31954 now!
10-day predictions
STARLINK-31954 is classified as:


NORAD ID: 60102
Int'l Code: 2024-117M
Launch date: June 23, 2024
Source: United States (US)
Launch site: AIR FORCE EASTERN TEST RANGE (AFETR)
Your satellite tracking list
Your tracking list is empty




NASA's NSSDC Master Catalog

Two Line Element Set (TLE):
1 60102U 24117M   26253.98419154 -.00000817  00000-0 -13050-4 0  9994
2 60102  53.1590 254.4865 0001389  78.8179 281.2980 15.34393718125281
Source of the keplerian elements: AFSPC